Location: Cerda�ola
(41.4919°N, 2.1403°E)
Time: 00:41:02
(UTC+00:00)

STARLINK-1077 - Pass Details

Date: 29 March 2020
Orbit: 548 x 551 km, 53.0° (Epoch: 27 May)

Event Time Altitude Azimuth Distance (km) Brightness Sun altitude
Rises 19:13:06 0° 303° (WNW) 2,719 8.8 -11.7°
Reaches altitude 10° 19:15:24 10° 298° (WNW) 1,822 7.7 -12.1°
Maximum altitude 19:19:22 46° 225° (SW) 741 4.5 -12.8°
Enters shadow 19:22:57 12° 153° (SSE) 1,675 5.7 -13.5°
